Location: Carnières
(50.1682°N, 3.3474°E)
Time: 05:50:12
(UTC+00:00)

MOZ.5/SAFIR/RUBIN 5/SL-8 - Pass Details

Date: 15 August 2024
Orbit: 671 x 698 km, 98.3° (Epoch: 08 September)

Event Time Altitude Azimuth Distance (km) Brightness Sun altitude
Exits shadow 23:16:48 - 85° (E) 2,455 6.6 -25.7°
Reaches altitude 10° 23:18:34 10° 66° (ENE) 2,163 6.5 -25.8°
Maximum altitude 23:19:47 11° 51° (NE) 2,101 6.6 -25.8°
Drops below altitude 10° 23:21:01 10° 36° (NE) 2,169 6.9 -25.8°
Sets 23:25:05 0° 1° (N) 3,096 8.5 -25.9°
